Preview of NWS' New Version of Forecast
This preview is not operational and should not be used for support decisions.

Regional Weather Roundup (RWR)

Issued by National Weather Service (NWS)

                            
000
ASUS45 KABQ 221010
RWRNM 
NEW MEXICO REGIONAL WEATHER ROUNDUP
NATIONAL WEATHER SERVICE ALBUQUERQUE NM
400 AM MDT MON JUL 22 2019

NOTE: "FAIR" MEANS FEW OR NO CLOUDS BELOW 12,000 FEET AGL WITH NO
       SIGNIFICANT WEATHER OR OBSTRUCTIONS TO VISION.

      THIS PRODUCT IS RELEASED AS TWO VERSIONS.  ONE VERSION NEAR
      THE TOP OF THE HOUR CONTAINING PRELIMINARY DATA FROM ALBUQUERQUE
      AND OTHER STATIONS.  A FINAL VERSION WITH ADDITIONAL DATA IS 
      ISSUED ABOUT 10 MINUTES AFTER THE HOUR.
 
NMZ501-503-504-510>518-221100-
NORTHWEST PLATEAU/NORTHCENTRAL MOUNTAINS
  
CITY           SKY/WX    TMP DP  RH WIND       PRES   REMARKS
FARMINGTON     FAIR      76  46  34 E17       30.20R                  
LOS ALAMOS       N/A     65  45  47 SW8       30.43R                  
SANTA FE       FAIR      69  47  45 SE12      30.35R                  
ANGEL FIRE       N/A     54  47  76 NE3       30.56S                  

$$
NMZ402-403-502-505>509-221100-
WESTCENTRAL MOUNTAINS/SOUTHWEST MOUNTAINS
  
CITY           SKY/WX    TMP DP  RH WIND       PRES   REMARKS
GALLUP         FAIR      62  32  32 E5        30.28R                  
GRANTS         FAIR      67  46  47 S12G17    30.33R                  
SILVER CITY    CLOUDY    78  47  34 NE9       30.20S                  

$$
NMZ407-409-411-412-221100-
SOUTHERN DESERTS
  
CITY           SKY/WX    TMP DP  RH WIND       PRES   REMARKS
DEMING         FAIR      82  48  30 NE16      30.11R                  
LAS CRUCES     CLOUDY    79  53  40 S8        30.14S                  
ALAMOGORDO     FAIR      81  46  30 SE3       30.11R                  
T OR C         FAIR      79  53  40 NE14      30.16S                  

$$
NMZ519>523-221100-
CENTRAL VALLEYS/CENTRAL HIGHLANDS
  
CITY           SKY/WX    TMP DP  RH WIND       PRES   REMARKS
ALBUQUERQUE    FAIR      73  52  47 E20G30    30.25R                  
DOUBLE EAGLE   FAIR      70  50  49 SE8       30.30R                  
MORIARTY ARPT  MOCLDY    66  53  61 NE5       30.38R                  
CLINES CORNERS FAIR      60  49  66 NE15      30.42R                  
BELEN          FAIR      72  48  43 N12       30.25R                  
SOCORRO        FAIR      75  50  40 N6        30.21R                  

$$
NMZ524>526-539-540-221100-
SOUTHCENTRAL MOUNTAINS
  
CITY           SKY/WX    TMP DP  RH WIND       PRES   REMARKS
RUIDOSO          N/A     57  55  94 NE5       30.37R                  

$$
NMZ527>531-221100-
NORTHEAST HIGHLANDS/NORTHEAST PLAINS
  
CITY           SKY/WX    TMP DP  RH WIND       PRES   REMARKS
LAS VEGAS      FAIR      58  51  78 NE12      30.45R                  
RATON          MOCLDY    60  52  74 SE6       30.41R                  
CLAYTON        LGT RAIN  63  62  97 E8        30.35S                  

$$
NMZ532>537-221100-
EASTCENTRAL PLAINS
  
CITY           SKY/WX    TMP DP  RH WIND       PRES   REMARKS
SANTA ROSA     CLOUDY    71  64  77 N24G35    30.28R                  
TUCUMCARI      LGT RAIN  67  63  87 N15       30.25R                  
CANNON AFB     MOCLDY    69  61  76 N20       30.22R                  
CLOVIS AIRPORT FAIR      71  63  75 N24       30.22R                  

$$
NMZ028-029-538-221100-
SOUTHEAST PLAINS
  
CITY           SKY/WX    TMP DP  RH WIND       PRES   REMARKS
ROSWELL        CLOUDY    73  63  70 NW9       30.14R                  
ARTESIA        FAIR      72  68  88 NW8       30.14R                  
CARLSBAD       FAIR      75  62  64 W7        30.08F                  
HOBBS          FAIR      72  61  68 N7        30.11S                  


$$